Home > Weather > Kunduz > Past weeks

Flag for Afghanistan Weather for the Past 2 Weeks in Kunduz, Afghanistan

Now
37 °F

Overcast.


Feels Like: 35 °F
Forecast: 28 / 48 °F
Wind: 3 mph from South

Location: Termez Airport

Current Time: Feb 13, 2016 at 10:28:02 PM

Latest Report: Feb 13, 2016 at 9:30 PM


Visibility: N/A

Pressure: 30.39 "Hg

Humidity: 60%

Dew point: 25 °F

Location of KunduzLocation

Historic Weather in Kunduz — Graph

°F

Kunduz Temperature Yesterday

Maximum temperature yesterday: 43 °F (at 2:30 PM)
Minimum temperature yesterday: 19 °F (at 7:00 AM)
Average temperature yesterday: 33 °F

High & Low Weather Summary for the Past Weeks

 TemperatureHumidityPressure
High70 °F (Feb 8, 2:00 PM)100% (Jan 30, 1:30 AM)30.57 "Hg (Jan 30, 1:30 AM)
Low19 °F (Feb 12, 7:00 AM)20% (Feb 8, 3:30 PM)29.92 "Hg (Feb 8, 4:00 PM)
Average40 °F73%30.29 "Hg
* Reported Jan 29 8:30 PM — Feb 13 9:00 PM, Kunduz, Weather by CustomWeather, © 2016

Note: Actual official high and low records may vary slightly from our data, if they occured in-between our weather recording intervals... More about our weather records

Advertising

Kunduz Weather History for the Previous 24 Hours

 ConditionsComfort  
Time TempWeatherWind HumidityBarometerVisibility
9:00 PM
Sat, Feb 13
36 °FOvercast.5 mph65%30.39 "HgN/A
8:30 PM36 °FOvercast.5 mph65%30.39 "HgN/A
8:00 PM36 °FOvercast.5 mph65%30.39 "HgN/A
7:30 PM37 °FOvercast.5 mph60%30.36 "HgN/A
7:00 PM37 °FOvercast.6 mph60%30.36 "HgN/A
6:30 PM37 °FOvercast.6 mph60%30.36 "HgN/A
6:00 PM37 °FOvercast.1 mph60%30.36 "HgN/A
5:30 PM37 °FOvercast.1 mph56%30.33 "HgN/A
5:00 PM39 °FOvercast.5 mph56%30.33 "HgN/A
4:30 PM39 °FPartly sunny.2 mph52%30.33 "HgN/A
4:00 PM39 °FPartly sunny.5 mph56%30.33 "HgN/A
3:30 PM39 °FPartly sunny.2 mph56%30.33 "HgN/A
3:00 PM39 °FPartly sunny.1 mph56%30.33 "HgN/A
2:30 PM39 °FPartly sunny.No wind52%30.33 "HgN/A
2:00 PM39 °FPartly sunny.1 mph56%30.33 "HgN/A
1:30 PM37 °FPartly sunny.2 mph60%30.33 "HgN/A
1:00 PM39 °FPartly sunny.2 mph56%30.33 "HgN/A
12:30 PM37 °FPartly sunny.2 mph60%30.33 "HgN/A
12:00 PM37 °FPartly sunny.3 mph60%30.33 "HgN/A
11:30 AM37 °FPartly sunny.5 mph60%30.36 "HgN/A
11:00 AM37 °FPartly sunny.6 mph60%30.36 "HgN/A
10:30 AM37 °FPartly sunny.6 mph65%30.36 "HgN/A
10:00 AM37 °FPartly sunny.6 mph60%30.36 "HgN/A
9:30 AM36 °FPartly sunny.5 mph70%30.36 "Hg4 mi
9:00 AM36 °FPartly sunny.3 mph75%30.36 "Hg6 mi
8:30 AM34 °FPartly sunny.3 mph81%30.36 "Hg4 mi
8:00 AM34 °FPartly sunny.2 mph87%30.36 "Hg4 mi
7:30 AM32 °FPartly sunny.3 mph93%30.33 "Hg4 mi
6:30 AM32 °FPassing clouds.3 mph93%30.33 "Hg5 mi
5:30 AM32 °FPassing clouds.2 mph87%30.33 "Hg5 mi
4:30 AM32 °FPassing clouds.5 mph87%30.33 "HgN/A
4:00 AM32 °FPassing clouds.3 mph87%30.33 "HgN/A
3:30 AM32 °FPassing clouds.2 mph87%30.33 "HgN/A
2:30 AM30 °FPassing clouds.No wind93%30.33 "HgN/A
1:30 AM30 °FPassing clouds.No wind86%30.33 "HgN/A
12:30 AM28 °FPassing clouds.No wind93%30.36 "HgN/A
11:30 PM
Fri, Feb 12
28 °FClear.2 mph86%30.33 "Hg10 mi
11:00 PM30 °FClear.2 mph80%30.33 "Hg10 mi
10:30 PM30 °FClear.5 mph80%30.33 "Hg10 mi
10:00 PM30 °FClear.7 mph80%30.33 "Hg10 mi
Weather by CustomWeather, © 2016

See weather overviewHow to use our weather pages